"Sample Date","Sample Time","Sample Value","Units","Flow Rate","Sample Interval","Number Channels","Micron Size 0","Counts/Channel 0","Micron Size 1","Counts/Channel 1","Micron Size 2","Counts/Channel 2","Micron Size 3","Counts/Channel 3","Micron Size 4","Counts/Channel 4","Micron Size 5","Counts/Channel 5","Micron Size 6","Counts/Channel 6","Micron Size 7","Counts/Channel 7","Micron Size 8","Counts/Channel 8","Micron Size 9","Counts/Channel 9","Micron Size 10","Counts/Channel 10","Micron Size 11","Counts/Channel 11","Micron Size 12","Counts/Channel 12","Micron Size 13","Counts/Channel 13","Micron Size 14","Counts/Channel 14","Micron Size 15","Counts/Channel 15","Micron Size 16","Counts/Channel 16","Micron Size 17","Counts/Channel 17","Micron Size 18","Counts/Channel 18","Micron Size 19","Counts/Channel 19","Micron Size 20","Counts/Channel 20","Micron Size 21","Counts/Channel 21","Micron Size 22","Counts/Channel 22","Micron Size 23","Counts/Channel 23","Micron Size 24","Counts/Channel 24","Micron Size 25","Counts/Channel 25","Micron Size 26","Counts/Channel 26","Micron Size 27","Counts/Channel 27","Micron Size 28","Counts/Channel 28","Micron Size 29","Counts/Channel 29","Micron Size 30","Counts/Channel 30","Micron Size 31","Counts/Channel 31"
"04/03/08","02:00:03",111065.000,"cc",28313.623,6.00,6,0.100,100778.000,0.200,7374.000,0.300,1287.000,0.500,1202.000,1.000,424.000,5.000,0
"04/03/08","02:00:09",121415.000,"cc",28292.244,6.00,6,0.100,110269.000,0.200,8266.000,0.300,1275.000,0.500,1212.000,1.000,393.000,5.000,0
"04/03/08","02:00:15",158446.000,"cc",28329.111,6.00,6,0.100,144740.000,0.200,10912.000,0.300,1291.000,0.500,1111.000,1.000,392.000,5.000,0
"04/03/08","02:00:21",201581.000,"cc",28313.965,6.00,6,0.100,183359.000,0.200,15311.000,0.300,1412.000,0.500,1115.000,1.000,384.000,5.000,0
"04/03/08","02:00:27",160768.000,"cc",28338.863,6.00,6,0.100,146811.000,0.200,11263.000,0.300,1268.000,0.500,1092.000,1.000,334.000,5.000,0
"04/03/08","02:00:33",99035.000,"cc",28284.922,6.00,6,0.100,90079.000,0.200,6402.000,0.300,1052.000,0.500,1119.000,1.000,383.000,5.000,0
"04/03/08","02:00:39",156784.000,"cc",28324.400,6.00,6,0.100,143209.000,0.200,10904.000,0.300,1195.000,0.500,1108.000,1.000,368.000,5.000,0
"04/03/08","02:00:45",137663.000,"cc",28408.272,6.00,6,0.100,125697.000,0.200,9344.000,0.300,1211.000,0.500,1055.000,1.000,356.000,5.000,0
"04/03/08","02:00:51",119741.000,"cc",28290.928,6.00,6,0.100,109195.000,0.200,7969.000,0.300,1161.000,0.500,1056.000,1.000,360.000,5.000,0
"04/03/08","02:00:57",78227.000,"cc",28218.213,6.00,6,0.100,70696.000,0.200,4935.000,0.300,1073.000,0.500,1132.000,1.000,391.000,5.000,0
"04/03/08","02:01:03",47929.000,"cc",28327.291,6.00,6,0.100,42201.000,0.200,2929.000,0.300,1173.000,0.500,1224.000,1.000,402.000,5.000,0
"04/03/08","02:01:09",60828.000,"cc",28360.131,6.00,6,0.100,54365.000,0.200,3936.000,0.300,1034.000,0.500,1094.000,1.000,399.000,5.000,0
"04/03/08","02:01:15",80372.000,"cc",28317.096,6.00,6,0.100,72672.000,0.200,5068.000,0.300,1136.000,0.500,1115.000,1.000,381.000,5.000,0
"04/03/08","02:01:21",144881.000,"cc",28322.559,6.00,6,0.100,131507.000,0.200,10261.000,0.300,1368.000,0.500,1302.000,1.000,443.000,5.000,0
"04/03/08","02:01:27",60770.000,"cc",28323.891,6.00,6,0.100,54434.000,0.200,3676.000,0.300,1103.000,0.500,1142.000,1.000,415.000,5.000,0
"04/03/08","02:01:33",101564.000,"cc",28250.941,6.00,6,0.100,92109.000,0.200,6791.000,0.300,1137.000,0.500,1137.000,1.000,390.000,5.000,0
"04/03/08","02:01:39",66889.000,"cc",28274.131,6.00,6,0.100,59719.000,0.200,4246.000,0.300,1219.000,0.500,1274.000,1.000,431.000,5.000,0
"04/03/08","02:01:45",68866.000,"cc",28400.838,6.00,6,0.100,62293.000,0.200,4117.000,0.300,960.000,0.500,1110.000,1.000,386.000,5.000,0
"04/03/08","02:01:51",116299.000,"cc",28335.865,6.00,6,0.100,106100.000,0.200,7684.000,0.300,1097.000,0.500,1057.000,1.000,361.000,5.000,0
"04/03/08","02:01:57",167292.000,"cc",28340.240,6.00,6,0.100,153303.000,0.200,11368.000,0.300,1212.000,0.500,1048.000,1.000,361.000,5.000,0
"04/03/08","02:02:03",134463.000,"cc",28338.600,6.00,6,0.100,123412.000,0.200,8733.000,0.300,1026.000,0.500,967.000,1.000,325.000,5.000,0
"04/03/08","02:02:09",89923.000,"cc",28308.779,6.00,6,0.100,81978.000,0.200,5572.000,0.300,1012.000,0.500,989.000,1.000,372.000,5.000,0
"04/03/08","02:02:15",94715.000,"cc",28237.420,6.00,6,0.100,86287.000,0.200,5888.000,0.300,1100.000,0.500,1070.000,1.000,370.000,5.000,0
"04/03/08","02:02:21",129365.000,"cc",28309.324,6.00,6,0.100,118276.000,0.200,8593.000,0.300,1141.000,0.500,1019.000,1.000,336.000,5.000,0
"04/03/08","02:02:27",152709.000,"cc",28372.832,6.00,6,0.100,140076.000,0.200,10206.000,0.300,1082.000,0.500,1013.000,1.000,332.000,5.000,0
"04/03/08","02:02:33",153837.000,"cc",28288.912,6.00,6,0.100,140303.000,0.200,10773.000,0.300,1240.000,0.500,1125.000,1.000,396.000,5.000,0
"04/03/08","02:02:39",96726.000,"cc",28293.191,6.00,6,0.100,87860.000,0.200,6265.000,0.300,1114.000,0.500,1083.000,1.000,404.000,5.000,0
"04/03/08","02:02:45",147835.000,"cc",28319.473,6.00,6,0.100,135229.000,0.200,9978.000,0.300,1196.000,0.500,1041.000,1.000,391.000,5.000,0
"04/03/08","02:02:51",76051.000,"cc",28297.846,6.00,6,0.100,68857.000,0.200,4647.000,0.300,1048.000,0.500,1092.000,1.000,407.000,5.000,0
"04/03/08","02:02:57",107224.000,"cc",28391.129,6.00,6,0.100,97707.000,0.200,6997.000,0.300,1087.000,0.500,1070.000,1.000,363.000,5.000,0
"04/03/08","02:03:03",147497.000,"cc",28343.711,6.00,6,0.100,135084.000,0.200,9872.000,0.300,1131.000,0.500,1093.000,1.000,317.000,5.000,0
"04/03/08","02:03:09",141881.000,"cc",28259.658,6.00,6,0.100,129821.000,0.200,9481.000,0.300,1188.000,0.500,1048.000,1.000,343.000,5.000,0
"04/03/08","02:03:15",127283.000,"cc",28286.645,6.00,6,0.100,116351.000,0.200,8382.000,0.300,1148.000,0.500,1021.000,1.000,381.000,5.000,0
"04/03/08","02:03:21",127677.000,"cc",28347.221,6.00,6,0.100,116744.000,0.200,8448.000,0.300,1119.000,0.500,989.000,1.000,377.000,5.000,0
"04/03/08","02:03:27",138539.000,"cc",28312.773,6.00,6,0.100,126868.000,0.200,9231.000,0.300,1113.000,0.500,980.000,1.000,347.000,5.000,0
"04/03/08","02:03:33",132007.000,"cc",28328.514,6.00,6,0.100,120584.000,0.200,8725.000,0.300,1200.000,0.500,1100.000,1.000,398.000,5.000,0
"04/03/08","02:03:39",137772.000,"cc",28314.832,6.00,6,0.100,125658.000,0.200,9238.000,0.300,1270.000,0.500,1188.000,1.000,418.000,5.000,0
"04/03/08","02:03:45",130125.000,"cc",28312.201,6.00,6,0.100,119173.000,0.200,8505.000,0.300,1095.000,0.500,983.000,1.000,369.000,5.000,0
"04/03/08","02:03:51",100701.000,"cc",28251.824,6.00,6,0.100,92094.000,0.200,6195.000,0.300,1045.000,0.500,1011.000,1.000,356.000,5.000,0
"04/03/08","02:03:57",104185.000,"cc",28328.492,6.00,6,0.100,95211.000,0.200,6482.000,0.300,1105.000,0.500,1015.000,1.000,372.000,5.000,0
"04/03/08","02:04:03",108946.000,"cc",28342.516,6.00,6,0.100,98457.000,0.200,7290.000,0.300,1420.000,0.500,1357.000,1.000,422.000,5.000,0
"04/03/08","02:04:09",109105.000,"cc",28335.512,6.00,6,0.100,98103.000,0.200,7470.000,0.300,1530.000,0.500,1454.000,1.000,548.000,5.000,0
"04/03/08","02:04:15",80990.000,"cc",28267.318,6.00,6,0.100,73135.000,0.200,5207.000,0.300,1122.000,0.500,1113.000,1.000,413.000,5.000,0
"04/03/08","02:04:21",67602.000,"cc",28291.156,6.00,6,0.100,60650.000,0.200,4252.000,0.300,1155.000,0.500,1150.000,1.000,395.000,5.000,0
"04/03/08","02:04:27",87825.000,"cc",28321.063,6.00,6,0.100,79365.000,0.200,5618.000,0.300,1191.000,0.500,1253.000,1.000,398.000,5.000,0
"04/03/08","02:04:33",106424.000,"cc",28366.791,6.00,6,0.100,96768.000,0.200,7057.000,0.300,1102.000,0.500,1121.000,1.000,376.000,5.000,0
"04/03/08","02:04:39",67425.000,"cc",28327.022,6.00,6,0.100,60743.000,0.200,4109.000,0.300,1094.000,0.500,1071.000,1.000,408.000,5.000,0
"04/03/08","02:04:45",93517.000,"cc",28325.977,6.00,6,0.100,84621.000,0.200,6132.000,0.300,1159.000,0.500,1196.000,1.000,409.000,5.000,0
"04/03/08","02:04:51",95744.000,"cc",28301.199,6.00,6,0.100,86541.000,0.200,6292.000,0.300,1222.000,0.500,1281.000,1.000,408.000,5.000,0
"04/03/08","02:04:57",78181.000,"cc",28296.522,6.00,6,0.100,70630.000,0.200,4963.000,0.300,1099.000,0.500,1108.000,1.000,381.000,5.000,0
"04/03/08","02:05:03",84229.000,"cc",28329.141,6.00,6,0.100,76473.000,0.200,5236.000,0.300,1070.000,0.500,1061.000,1.000,389.000,5.000,0
"04/03/08","02:05:09",92167.000,"cc",28323.170,6.00,6,0.100,83610.000,0.200,6111.000,0.300,1058.000,0.500,1043.000,1.000,345.000,5.000,0
"04/03/08","02:05:15",87702.000,"cc",28294.898,6.00,6,0.100,79778.000,0.200,5500.000,0.300,1033.000,0.500,1023.000,1.000,368.000,5.000,0
"04/03/08","02:05:21",124095.000,"cc",28314.539,6.00,6,0.100,113314.000,0.200,8070.000,0.300,1203.000,0.500,1122.000,1.000,386.000,5.000,0
"04/03/08","02:05:27",105816.000,"cc",28281.549,6.00,6,0.100,96276.000,0.200,6953.000,0.300,1180.000,0.500,1072.000,1.000,335.000,5.000,0
"04/03/08","02:05:33",90689.000,"cc",28349.527,6.00,6,0.100,81887.000,0.200,5955.000,0.300,1162.000,0.500,1233.000,1.000,452.000,5.000,0
"04/03/08","02:05:39",85604.000,"cc",28338.926,6.00,6,0.100,77201.000,0.200,5474.000,0.300,1248.000,0.500,1255.000,1.000,426.000,5.000,0
"04/03/08","02:05:45",90160.000,"cc",28305.494,6.00,6,0.100,81599.000,0.200,5773.000,0.300,1244.000,0.500,1160.000,1.000,384.000,5.000,0
"04/03/08","02:05:51",69613.000,"cc",28292.049,6.00,6,0.100,62963.000,0.200,4194.000,0.300,1043.000,0.500,1056.000,1.000,357.000,5.000,0
"04/03/08","02:05:57",95819.000,"cc",28355.840,6.00,6,0.100,86816.000,0.200,6175.000,0.300,1225.000,0.500,1194.000,1.000,409.000,5.000,0
"04/03/08","02:06:03",126821.000,"cc",28289.441,6.00,6,0.100,115832.000,0.200,8307.000,0.300,1178.000,0.500,1097.000,1.000,407.000,5.000,0
"04/03/08","02:06:09",131772.000,"cc",28302.518,6.00,6,0.100,119770.000,0.200,8905.000,0.300,1367.000,0.500,1330.000,1.000,400.000,5.000,0
"04/03/08","02:06:15",57089.000,"cc",28299.656,6.00,6,0.100,50263.000,0.200,3758.000,0.300,1347.000,0.500,1284.000,1.000,437.000,5.000,0
"04/03/08","02:06:21",85901.000,"cc",28317.088,6.00,6,0.100,77782.000,0.200,5372.000,0.300,1167.000,0.500,1138.000,1.000,442.000,5.000,0
"04/03/08","02:06:27",102660.000,"cc",28343.756,6.00,6,0.100,93397.000,0.200,6647.000,0.300,1112.000,0.500,1114.000,1.000,390.000,5.000,0
"04/03/08","02:06:33",109106.000,"cc",28330.941,6.00,6,0.100,99290.000,0.200,7199.000,0.300,1173.000,0.500,1065.000,1.000,379.000,5.000,0
"04/03/08","02:06:39",89135.000,"cc",28338.633,6.00,6,0.100,81066.000,0.200,5605.000,0.300,1042.000,0.500,1033.000,1.000,389.000,5.000,0
"04/03/08","02:06:45",70693.000,"cc",28225.145,6.00,6,0.100,63721.000,0.200,4505.000,0.300,1028.000,0.500,1024.000,1.000,415.000,5.000,0
"04/03/08","02:06:51",120042.000,"cc",28334.656,6.00,6,0.100,109585.000,0.200,7879.000,0.300,1092.000,0.500,1094.000,1.000,392.000,5.000,0
"04/03/08","02:06:57",223534.000,"cc",28319.854,6.00,6,0.100,202797.000,0.200,17658.000,0.300,1467.000,0.500,1206.000,1.000,406.000,5.000,0
"04/03/08","02:07:03",213092.000,"cc",28336.940,6.00,6,0.100,194606.000,0.200,15625.000,0.300,1318.000,0.500,1149.000,1.000,394.000,5.000,0
"04/03/08","02:07:09",132231.000,"cc",28298.877,6.00,6,0.100,120717.000,0.200,8723.000,0.300,1229.000,0.500,1146.000,1.000,416.000,5.000,0
"04/03/08","02:07:15",166211.000,"cc",28317.846,6.00,6,0.100,151704.000,0.200,11515.000,0.300,1275.000,0.500,1289.000,1.000,428.000,5.000,0
"04/03/08","02:07:21",125477.000,"cc",28389.148,6.00,6,0.100,114923.000,0.200,8087.000,0.300,1073.000,0.500,1040.000,1.000,354.000,5.000,0
"04/03/08","02:07:27",105747.000,"cc",28319.990,6.00,6,0.100,96591.000,0.200,6694.000,0.300,1065.000,0.500,1046.000,1.000,351.000,5.000,0
"04/03/08","02:07:33",119762.000,"cc",28308.246,6.00,6,0.100,109438.000,0.200,7856.000,0.300,1098.000,0.500,987.000,1.000,383.000,5.000,0
"04/03/08","02:07:39",93679.000,"cc",28314.775,6.00,6,0.100,85368.000,0.200,5880.000,0.300,1047.000,0.500,1037.000,1.000,347.000,5.000,0
"04/03/08","02:07:45",103487.000,"cc",28341.328,6.00,6,0.100,94118.000,0.200,6687.000,0.300,1152.000,0.500,1132.000,1.000,398.000,5.000,0
"04/03/08","02:07:51",94938.000,"cc",28270.381,6.00,6,0.100,86340.000,0.200,6042.000,0.300,1085.000,0.500,1073.000,1.000,398.000,5.000,0
"04/03/08","02:07:57",136666.000,"cc",28342.027,6.00,6,0.100,124589.000,0.200,9437.000,0.300,1205.000,0.500,1089.000,1.000,346.000,5.000,0
"04/03/08","02:08:03",107045.000,"cc",28304.834,6.00,6,0.100,97728.000,0.200,6810.000,0.300,1064.000,0.500,1098.000,1.000,345.000,5.000,0
"04/03/08","02:08:09",100033.000,"cc",28293.785,6.00,6,0.100,91335.000,0.200,6340.000,0.300,1001.000,0.500,1016.000,1.000,341.000,5.000,0
"04/03/08","02:08:15",142800.000,"cc",28329.912,6.00,6,0.100,130288.000,0.200,9970.000,0.300,1105.000,0.500,1051.000,1.000,386.000,5.000,0
"04/03/08","02:08:21",166768.000,"cc",28318.447,6.00,6,0.100,152021.000,0.200,12098.000,0.300,1212.000,0.500,1069.000,1.000,368.000,5.000,0
"04/03/08","02:08:27",157303.000,"cc",28336.508,6.00,6,0.100,143723.000,0.200,11051.000,0.300,1163.000,0.500,1011.000,1.000,355.000,5.000,0
"04/03/08","02:08:33",153660.000,"cc",28282.582,6.00,6,0.100,139421.000,0.200,11607.000,0.300,1162.000,0.500,1097.000,1.000,373.000,5.000,0
"04/03/08","02:08:39",182464.000,"cc",28271.209,6.00,6,0.100,166344.000,0.200,13549.000,0.300,1144.000,0.500,1059.000,1.000,368.000,5.000,0
"04/03/08","02:08:45",177514.000,"cc",28339.887,6.00,6,0.100,161832.000,0.200,13229.000,0.300,1161.000,0.500,950.000,1.000,342.000,5.000,0
"04/03/08","02:08:51",199714.000,"cc",28333.775,6.00,6,0.100,181345.000,0.200,15771.000,0.300,1180.000,0.500,1069.000,1.000,349.000,5.000,0
"04/03/08","02:08:57",172897.000,"cc",28363.838,6.00,6,0.100,157326.000,0.200,13087.000,0.300,1128.000,0.500,1076.000,1.000,280.000,5.000,0
"04/03/08","02:09:03",170611.000,"cc",28349.801,6.00,6,0.100,154853.000,0.200,13286.000,0.300,1144.000,0.500,1007.000,1.000,321.000,5.000,0
"04/03/08","02:09:09",294013.000,"cc",28275.641,6.00,6,0.100,263775.000,0.200,27254.000,0.300,1592.000,0.500,1061.000,1.000,331.000,5.000,0
"04/03/08","02:09:15",317809.000,"cc",28247.397,6.00,6,0.100,273627.000,0.200,40859.000,0.300,1887.000,0.500,1090.000,1.000,346.000,5.000,0
"04/03/08","02:09:21",283897.000,"cc",28273.910,6.00,6,0.100,255097.000,0.200,25830.000,0.300,1562.000,0.500,1049.000,1.000,359.000,5.000,0
"04/03/08","02:09:27",236169.000,"cc",28320.947,6.00,6,0.100,213358.000,0.200,20117.000,0.300,1341.000,0.500,1036.000,1.000,317.000,5.000,0
"04/03/08","02:09:33",181158.000,"cc",28351.859,6.00,6,0.100,164568.000,0.200,14132.000,0.300,1158.000,0.500,984.000,1.000,316.000,5.000,0
"04/03/08","02:09:39",159253.000,"cc",28297.402,6.00,6,0.100,144927.000,0.200,11808.000,0.300,1161.000,0.500,996.000,1.000,361.000,5.000,0
"04/03/08","02:09:45",161713.000,"cc",28300.760,6.00,6,0.100,146472.000,0.200,12737.000,0.300,1161.000,0.500,991.000,1.000,352.000,5.000,0
"04/03/08","02:09:51",134979.000,"cc",28354.684,6.00,6,0.100,122639.000,0.200,9774.000,0.300,1140.000,0.500,1060.000,1.000,366.000,5.000,0
"04/03/08","02:09:57",105606.000,"cc",28326.473,6.00,6,0.100,95882.000,0.200,7273.000,0.300,1068.000,0.500,1052.000,1.000,331.000,5.000,0
"04/03/08","02:10:03",116890.000,"cc",28322.988,6.00,6,0.100,106165.000,0.200,8207.000,0.300,1120.000,0.500,1029.000,1.000,369.000,5.000,0
"04/03/08","02:10:09",101963.000,"cc",28359.457,6.00,6,0.100,92434.000,0.200,7158.000,0.300,1013.000,0.500,1019.000,1.000,339.000,5.000,0
"04/03/08","02:10:15",59634.000,"cc",28274.760,6.00,6,0.100,53427.000,0.200,3840.000,0.300,1012.000,0.500,1011.000,1.000,344.000,5.000,0
"04/03/08","02:10:21",114308.000,"cc",28336.578,6.00,6,0.100,103799.000,0.200,8199.000,0.300,985.000,0.500,1004.000,1.000,321.000,5.000,0
"04/03/08","02:10:27",158629.000,"cc",28303.471,6.00,6,0.100,144455.000,0.200,11776.000,0.300,1084.000,0.500,959.000,1.000,355.000,5.000,0
"04/03/08","02:10:33",134407.000,"cc",28303.250,6.00,6,0.100,122385.000,0.200,9551.000,0.300,1062.000,0.500,1071.000,1.000,338.000,5.000,0
"04/03/08","02:10:39",163145.000,"cc",28313.492,6.00,6,0.100,148344.000,0.200,12442.000,0.300,1072.000,0.500,965.000,1.000,322.000,5.000,0
"04/03/08","02:10:45",143573.000,"cc",28355.690,6.00,6,0.100,130505.000,0.200,10627.000,0.300,1050.000,0.500,1006.000,1.000,385.000,5.000,0
"04/03/08","02:10:51",162496.000,"cc",28319.156,6.00,6,0.100,147583.000,0.200,12450.000,0.300,1081.000,0.500,1019.000,1.000,363.000,5.000,0
"04/03/08","02:10:57",134400.000,"cc",28365.365,6.00,6,0.100,122233.000,0.200,9778.000,0.300,1048.000,0.500,995.000,1.000,346.000,5.000,0
"04/03/08","02:11:03",135567.000,"cc",28321.334,6.00,6,0.100,123222.000,0.200,9988.000,0.300,1047.000,0.500,980.000,1.000,330.000,5.000,0
"04/03/08","02:11:09",175602.000,"cc",28291.186,6.00,6,0.100,159252.000,0.200,13794.000,0.300,1175.000,0.500,1032.000,1.000,349.000,5.000,0
"04/03/08","02:11:15",171285.000,"cc",28329.557,6.00,6,0.100,155304.000,0.200,13435.000,0.300,1162.000,0.500,1041.000,1.000,343.000,5.000,0
"04/03/08","02:11:21",165166.000,"cc",28275.955,6.00,6,0.100,150043.000,0.200,12722.000,0.300,1083.000,0.500,991.000,1.000,327.000,5.000,0
"04/03/08","02:11:27",144221.000,"cc",28311.406,6.00,6,0.100,130602.000,0.200,11063.000,0.300,1145.000,0.500,1061.000,1.000,350.000,5.000,0
"04/03/08","02:11:33",209796.000,"cc",28309.609,6.00,6,0.100,189697.000,0.200,17454.000,0.300,1253.000,0.500,1059.000,1.000,333.000,5.000,0
"04/03/08","02:11:39",248453.000,"cc",28343.490,6.00,6,0.100,223858.000,0.200,21835.000,0.300,1367.000,0.500,1036.000,1.000,357.000,5.000,0
"04/03/08","02:11:45",201135.000,"cc",28263.066,6.00,6,0.100,181928.000,0.200,16583.000,0.300,1263.000,0.500,1038.000,1.000,323.000,5.000,0
"04/03/08","02:11:51",251982.000,"cc",28354.676,6.00,6,0.100,227536.000,0.200,21777.000,0.300,1272.000,0.500,1030.000,1.000,367.000,5.000,0
"04/03/08","02:11:57",220902.000,"cc",28339.615,6.00,6,0.100,199042.000,0.200,19244.000,0.300,1270.000,0.500,1034.000,1.000,312.000,5.000,0
"04/03/08","02:12:03",245204.000,"cc",28332.078,6.00,6,0.100,220915.000,0.200,21720.000,0.300,1347.000,0.500,905.000,1.000,317.000,5.000,0
"04/03/08","02:12:09",172931.000,"cc",28304.588,6.00,6,0.100,157031.000,0.200,13619.000,0.300,1098.000,0.500,898.000,1.000,285.000,5.000,0
"04/03/08","02:12:15",225740.000,"cc",28254.561,6.00,6,0.100,203946.000,0.200,19314.000,0.300,1223.000,0.500,924.000,1.000,333.000,5.000,0
"04/03/08","02:12:21",265472.000,"cc",28249.422,6.00,6,0.100,238429.000,0.200,24418.000,0.300,1375.000,0.500,916.000,1.000,334.000,5.000,0
"04/03/08","02:12:27",217679.000,"cc",28281.852,6.00,6,0.100,197056.000,0.200,18154.000,0.300,1240.000,0.500,923.000,1.000,306.000,5.000,0
"04/03/08","02:12:33",129044.000,"cc",28401.000,6.00,6,0.100,117476.000,0.200,9353.000,0.300,1005.000,0.500,899.000,1.000,311.000,5.000,0
"04/03/08","02:12:39",177107.000,"cc",28409.236,6.00,6,0.100,160506.000,0.200,14258.000,0.300,1092.000,0.500,946.000,1.000,305.000,5.000,0
"04/03/08","02:12:45",228447.000,"cc",28285.742,6.00,6,0.100,205537.000,0.200,20249.000,0.300,1362.000,0.500,958.000,1.000,341.000,5.000,0
"04/03/08","02:12:51",205838.000,"cc",28341.762,6.00,6,0.100,186250.000,0.200,17033.000,0.300,1245.000,0.500,969.000,1.000,341.000,5.000,0
"04/03/08","02:12:57",168457.000,"cc",28291.098,6.00,6,0.100,152633.000,0.200,13336.000,0.300,1233.000,0.500,954.000,1.000,301.000,5.000,0
"04/03/08","02:13:03",138071.000,"cc",28320.254,6.00,6,0.100,125245.000,0.200,10371.000,0.300,1128.000,0.500,973.000,1.000,354.000,5.000,0
"04/03/08","02:13:09",124561.000,"cc",28332.645,6.00,6,0.100,113117.000,0.200,9091.000,0.300,1037.000,0.500,1010.000,1.000,306.000,5.000,0
"04/03/08","02:13:15",186598.000,"cc",28307.518,6.00,6,0.100,169132.000,0.200,14921.000,0.300,1227.000,0.500,999.000,1.000,319.000,5.000,0
"04/03/08","02:13:21",170177.000,"cc",28349.740,6.00,6,0.100,154314.000,0.200,13565.000,0.300,1057.000,0.500,950.000,1.000,291.000,5.000,0
"04/03/08","02:13:27",161428.000,"cc",28281.152,6.00,6,0.100,146826.000,0.200,12343.000,0.300,1034.000,0.500,893.000,1.000,332.000,5.000,0
"04/03/08","02:13:33",132201.000,"cc",28299.732,6.00,6,0.100,120242.000,0.200,9757.000,0.300,1027.000,0.500,887.000,1.000,288.000,5.000,0
"04/03/08","02:13:39",184895.000,"cc",28302.361,6.00,6,0.100,167262.000,0.200,15241.000,0.300,1143.000,0.500,955.000,1.000,294.000,5.000,0
"04/03/08","02:13:45",196790.000,"cc",28306.254,6.00,6,0.100,177892.000,0.200,16544.000,0.300,1117.000,0.500,930.000,1.000,307.000,5.000,0
"04/03/08","02:13:51",294259.000,"cc",28316.666,6.00,6,0.100,262400.000,0.200,29079.000,0.300,1459.000,0.500,990.000,1.000,331.000,5.000,0
"04/03/08","02:13:57",344539.000,"cc",28372.740,6.00,6,0.100,305854.000,0.200,35828.000,0.300,1599.000,0.500,957.000,1.000,301.000,5.000,0
"04/03/08","02:14:03",221764.000,"cc",28299.059,6.00,6,0.100,164516.000,0.200,53751.000,0.300,2134.000,0.500,1019.000,1.000,344.000,5.000,0
"04/03/08","02:14:09",322633.000,"cc",28278.969,6.00,6,0.100,276544.000,0.200,43040.000,0.300,1770.000,0.500,981.000,1.000,298.000,5.000,0
"04/03/08","02:14:15",207093.000,"cc",28335.701,6.00,6,0.100,137696.000,0.200,65570.000,0.300,2407.000,0.500,1086.000,1.000,334.000,5.000,0
"04/03/08","02:14:21",379616.000,"cc",28314.578,6.00,6,0.100,333098.000,0.200,43394.000,0.300,1747.000,0.500,1045.000,1.000,332.000,5.000,0
"04/03/08","02:14:27",302917.000,"cc",28309.078,6.00,6,0.100,258196.000,0.200,41682.000,0.300,1740.000,0.500,973.000,1.000,326.000,5.000,0
"04/03/08","02:14:33",313331.000,"cc",28398.027,6.00,6,0.100,269232.000,0.200,41084.000,0.300,1694.000,0.500,978.000,1.000,343.000,5.000,0
"04/03/08","02:14:39",363619.000,"cc",28255.025,6.00,6,0.100,322425.000,0.200,38289.000,0.300,1665.000,0.500,964.000,1.000,276.000,5.000,0
"04/03/08","02:14:45",257539.000,"cc",28318.174,6.00,6,0.100,231792.000,0.200,23112.000,0.300,1302.000,0.500,982.000,1.000,351.000,5.000,0
"04/03/08","02:14:51",173396.000,"cc",28265.484,6.00,6,0.100,157191.000,0.200,13879.000,0.300,1068.000,0.500,943.000,1.000,315.000,5.000,0
"04/03/08","02:14:57",322387.000,"cc",28294.166,6.00,6,0.100,287943.000,0.200,31797.000,0.300,1408.000,0.500,925.000,1.000,314.000,5.000,0
"04/03/08","02:15:03",264687.000,"cc",28303.631,6.00,6,0.100,218056.000,0.200,43619.000,0.300,1741.000,0.500,968.000,1.000,303.000,5.000,0
"04/03/08","02:15:09",354183.000,"cc",28305.008,6.00,6,0.100,314259.000,0.200,36997.000,0.300,1591.000,0.500,1017.000,1.000,319.000,5.000,0
"04/03/08","02:15:15",323953.000,"cc",28303.648,6.00,6,0.100,289418.000,0.200,31714.000,0.300,1484.000,0.500,1007.000,1.000,330.000,5.000,0
"04/03/08","02:15:21",318477.000,"cc",28302.451,6.00,6,0.100,273566.000,0.200,41956.000,0.300,1689.000,0.500,930.000,1.000,336.000,5.000,0
"04/03/08","02:15:27",187725.000,"cc",28319.281,6.00,6,0.100,93985.000,0.200,89417.000,0.300,2927.000,0.500,1073.000,1.000,323.000,5.000,0
"04/03/08","02:15:33",308014.000,"cc",28328.832,6.00,6,0.100,241620.000,0.200,62862.000,0.300,2333.000,0.500,941.000,1.000,258.000,5.000,0
"04/03/08","02:15:39",300305.000,"cc",28324.949,6.00,6,0.100,269290.000,0.200,28409.000,0.300,1405.000,0.500,891.000,1.000,310.000,5.000,0
"04/03/08","02:15:45",218502.000,"cc",28309.320,6.00,6,0.100,197794.000,0.200,18348.000,0.300,1106.000,0.500,922.000,1.000,332.000,5.000,0
"04/03/08","02:15:51",233316.000,"cc",28327.799,6.00,6,0.100,210111.000,0.200,20675.000,0.300,1251.000,0.500,960.000,1.000,319.000,5.000,0
"04/03/08","02:15:57",331058.000,"cc",28294.014,6.00,6,0.100,294216.000,0.200,33900.000,0.300,1652.000,0.500,987.000,1.000,303.000,5.000,0
"04/03/08","02:16:03",369563.000,"cc",28420.318,6.00,6,0.100,327480.000,0.200,39035.000,0.300,1778.000,0.500,936.000,1.000,334.000,5.000,0
"04/03/08","02:16:09",236371.000,"cc",28348.193,6.00,6,0.100,213144.000,0.200,20611.000,0.300,1306.000,0.500,990.000,1.000,320.000,5.000,0